User: anonymous   Login
Location: El Corozo
(10.5833°N, 66.9667°W)
Time: 20:10:15
(UTC+00:00)
Language:

Aureole 1 Rocket - Orbit

View from above orbital plane
View from above orbital plane
View from above satellite
View from above satellite

Ground track
Ground track

The orbit data is extracted from the following two-line orbital elements,

1 05730U 71119B   24199.44891275  .00010170  00000-0  58613-3 0  9994
2 05730  73.8915 205.8124 0613259 294.7558  59.0967 14.22300710569633
Epoch (UTC): 17 July 2024 10:46:26
Eccentricity: 0.0613259
inclination: 73.8915°
perigee height: 376 km
apogee height: 1259 km
right ascension of ascending node: 205.8124°
argument of perigee: 294.7558°
revolutions per day: 14.22300710
mean anomaly at epoch: 59.0967°
orbit number at epoch: 56963

The dashed part of the orbit path shows where the satellite is in the earth's shadow,  

DLR